Location: Roland
(31.1349°N, 85.4372°W)
Time: 01:33:30
(UTC+00:00)

S-56A Canister/Altair - Pass Details

Date: 23 April 2021
Orbit: 632 x 2500 km, 38.9° (Epoch: 06 May)

Event Time Altitude Azimuth Distance (km) Brightness Sun altitude
Rises 04:09:08 0° 253° (WSW) 5,240 11.9 -41.1°
Reaches altitude 10° 04:13:06 10° 256° (WSW) 3,952 11.2 -41.5°
Enters shadow 04:18:04 30° 264° (W) 2,338 10.0 -42.0°
